SCP
0 0 0 0 0 0 0 0 0 0 0 0 0 0 0 0 0 0 0 0 0 0 0 0 0 0 0 0 0 0 0 0 0 0 0 0 0 0 0 0 0 0 -0
0 0 1 1 0 0 0 0 0 0 0 0 0 0 0 0 0 0 0 0 0 0 0 0 0 0 0 0 0 0 0 0 0 0 0 0 0 0 0 0 0 0 0
1 1 1 1 0 0 0 0 0 0 0 0 0 0 0 0 0 0 0 0 0 0 0 0 0 0 0 0 0 0 0 0 0 0 0 0 0 0 0 0 -0 -0 0
1 1 1 1 1 1 0 0 0 0 0 0 0 0 0 0 0 0 0 0 0 0 0 0 0 0 0 0 0 0 0 0 0 0 0 0 0 0 0 0 0 0 0
1 1 1 1 1 1 1 0 0 0 0 0 0 0 0 0 0 0 0 0 0 0 0 0 0 0 0 0 0 0 0 0 0 0 0 0 0 0 -0 -0 0 0 -0
1 1 1 1 1 1 1 0 0 0 0 0 0 0 0 0 0 0 0 0 0 0 0 0 0 0 0 0 0 0 0 0 0 0 0 0 0 0 -0 0 0 0 -0
1 1 1 1 1 1 1 0 0 0 0 0 0 0 0 0 0 0 0 0 0 0 0 0 0 0 0 0 0 0 0 0 0 0 0 0 0 0 0 0 0 0 0
1 0 1 0 0 0 0 0 0 0 0 0 0 0 0 0 0 0 0 0 0 0 0 0 0 0 0 0 0 0 0 0 0 0 0 0 0 0 0 0 0 -0 0
1 1 0 0 0 0 0 0 0 0 0 0 0 0 0 0 0 0 0 0 0 0 0 0 0 0 0 0 0 0 0 0 0 0 0 0 0 0 0 -0 -0 -0 -0
1 1 0 0 0 0 0 0 0 0 0 0 0 0 0 0 0 0 0 0 0 0 0 0 0 0 0 0 0 0 0 0 0 0 0 0 0 0 -0 -0 -0 -0 0
0 0 0 0 0 0 0 0 0 0 0 0 0 0 0 -0 0 0 0 0 0 0 0 0 0 0 0 0 0 0 0 0 0 0 0 0 0 -0 -0 0 0 0 0
0 0 0 0 0 0 0 0 0 0 0 0 0 0 0 0 0 0 0 0 0 0 0 0 0 0 0 0 0 0 0 0 0 0 0 0 0 -0 -0 -0 0 0 0
0 0 0 0 0 0 0 0 0 0 0 -0 -0 0 0 0 0 0 0 0 0 0 0 0 0 0 0 0 0 0 0 0 0 0 0 -0 0 -0 -0 0 0 0 -0
0 0 0 0 0 0 0 0 0 0 0 -0 0 -0 -0 0 0 0 0 0 0 0 0 0 0 0 0 0 0 0 0 -0 0 0 -0 -0 -0 -0 0 0 0 0 -0
0 0 0 0 -0 -0 0 0 0 0 -0 0 0 0 0 0 0 0 0 0 0 0 0 0 0 0 0 0 0 0 0 -0 -0 -0 -0 -0 -0 -0 0 0 0 0 0
0 0 0 -0 -0 -0 0 0 0 -0 -0 0 0 0 0 0 0 0 0 -0 0 0 0 0 0 0 0 0 0 0 0 -0 -0 -0 -0 -0 -0 0 0 0 0 0 0
0 -0 0 0 0 0 0 -0 0 0 -0 -0 -0 0 0 0 0 0 0 0 0 0 0 0 0 0 0 0 0 0 0 0 0 -0 -0 -0 -0 0 0 0 0 0 -0
-0 -0 0 -0 0 0 0 0 0 0 0 0 -0 -0 0 0 0 0 0 0 0 0 0 0 0 0 0 0 0 0 0 0 -0 -0 -0 0 0 0 0 -0 0 0 0
0 0 -0 -0 0 0 0 0 0 0 0 0 0 -0 -0 -0 -0 -0 0 0 0 0 0 0 0 0 0 0 0 0 0 -0 0 0 0 0 0 0 -0 0 0 -0 -0
0 -0 -0 -0 -0 -0 0 0 0 0 0 0 0 0 -0 0 0 -0 0 0 0 0 0 0 0 0 0 0 0 0 0 0 0 0 0 0 0 -0 -0 0 0 -0 -0
-0 -0 -0 -0 0 0 0 0 0 0 0 0 0 0 -0 0 0 0 0 0 0 0 0 0 0 0 0 0 0 0 0 0 0 0 0 0 0 0 0 -0 -0 -0 -0
-0 -0 -0 -0 0 -0 0 0 0 0 0 0 0 0 0 0 0 0 0 0 0 0 0 0 0 0 0 0 0 0 0 -0 0 0 0 0 0 0 0 0 -0 -0 -0
-0 -0 -0 -0 0 0 0 0 -0 0 0 0 -0 0 0 0 0 0 0 0 0 0 0 0 0 0 0 0 0 0 0 -0 -0 -0 0 0 0 0 0 -0 -0 -0 0
-0 -0 0 -0 0 0 0 0 -0 0 -0 0 0 0 0 0 0 0 0 0 0 0 0 0 0 0 0 0 0 0 -0 -0 -0 -0 0 0 0 0 0 0 0 0 0
-0 0 0 0 0 0 0 0 0 0 -0 0 0 0 0 0 0 0 0 0 0 0 0 0 0 -0 -0 -0 -0 -0 -0 0 -0 -0 0 -0 0 0 0 0 0 0 0
-0 0 0 0 0 0 0 0 -0 0 0 0 0 0 0 0 0 0 0 0 0 0 0 0 0 -0 -0 -0 -0 0 0 0 -0 -0 -0 0 0 0 0 0 0 0 0
Wind_Speed_500mb
47 35 34 29 29 31 27 20 22 31 34 32 27 32 34 36 30 27 36 34 35 40 40 35 31 32 29 36 42 39 40 41 38 47 45 40 38 39 37 39 38 34 36
39 36 32 28 33 38 39 35 31 32 36 39 42 34 32 39 39 40 31 30 35 42 37 34 32 30 30 37 44 41 41 41 38 42 44 41 40 39 41 38 35 35 37
37 35 37 42 42 39 39 39 45 48 47 36 36 29 25 25 29 35 35 37 32 35 35 35 34 34 33 39 45 43 44 44 41 41 45 43 44 41 40 38 38 42 37
38 37 38 42 41 42 43 39 38 47 48 38 32 35 32 26 31 35 39 39 36 25 21 22 24 31 32 37 44 44 44 44 46 41 46 47 44 43 40 41 44 37 28
38 37 34 35 32 39 43 45 44 41 40 38 34 35 29 33 32 35 41 39 39 31 23 20 19 23 34 36 41 46 43 45 48 44 47 52 47 42 43 48 42 34 29
33 35 30 27 33 44 44 43 44 38 35 35 33 32 32 30 30 33 36 37 41 49 41 28 24 21 32 36 40 43 44 45 49 49 51 52 49 47 49 50 45 32 31
32 26 26 34 47 50 50 42 38 37 37 34 33 31 33 35 32 34 38 36 37 40 35 40 33 28 22 34 40 44 45 46 51 50 56 54 53 47 46 47 39 40 37
34 34 30 40 48 48 42 36 33 35 34 31 34 24 22 33 35 37 42 38 35 34 30 37 40 28 26 35 45 45 42 46 53 49 59 54 52 51 50 41 42 43 38
37 34 34 37 39 39 34 26 30 30 30 27 30 26 11 18 14 34 47 41 43 37 38 39 38 38 33 28 40 44 42 48 56 54 56 63 55 55 51 47 48 43 37
34 36 37 34 32 23 20 16 18 22 23 25 28 34 39 13 8 7 41 44 40 41 39 39 44 36 39 28 41 44 45 47 60 56 66 63 62 56 52 54 49 44 41
32 33 35 28 16 15 13 12 14 18 22 25 28 28 29 37 24 15 19 45 43 33 38 35 38 40 46 37 38 46 45 49 66 57 69 70 63 62 64 58 50 47 33
28 27 24 14 8 10 9 8 8 10 13 15 17 20 24 24 33 32 25 39 47 32 30 33 37 37 40 45 38 42 47 59 78 52 49 76 72 70 62 57 47 28 26
15 12 14 11 9 9 5 2 1 0 3 4 7 13 18 23 23 25 18 31 43 33 25 28 26 30 38 42 40 43 55 74 55 64 67 70 70 70 62 49 43 33 20
7 13 11 7 7 7 8 6 4 2 3 3 6 11 15 17 23 22 29 42 34 29 26 21 25 26 37 42 42 59 67 62 80 57 69 66 70 72 63 53 49 29 22
11 9 6 5 3 3 6 9 7 4 5 8 4 11 15 22 21 23 27 39 41 33 30 29 23 21 38 46 52 53 55 59 58 73 81 73 74 64 51 48 39 31 27
9 4 6 4 1 4 7 9 8 4 6 6 7 10 12 16 21 23 28 37 42 41 33 39 36 36 36 63 58 59 71 74 85 80 76 69 62 55 48 39 35 31 21
10 10 9 7 5 6 5 6 8 13 6 7 6 4 9 10 14 16 19 25 42 36 39 44 38 36 57 81 82 75 83 86 85 81 72 64 62 55 48 41 34 26 26
17 10 4 7 8 15 10 5 11 14 15 4 7 8 12 14 11 12 22 37 32 40 44 54 48 45 46 63 87 98 92 92 83 70 61 55 49 42 36 27 27 31 23
16 11 3 7 11 13 5 3 2 3 6 10 7 11 15 19 19 21 25 30 35 39 31 54 66 65 80 93 95 93 92 81 73 68 57 47 40 35 35 31 25 19 15
13 10 5 3 8 8 11 14 8 3 1 9 11 17 23 21 18 23 35 41 36 46 67 84 96 97 104 106 103 94 79 77 69 58 48 47 44 35 28 23 20 15 11
16 9 5 5 7 12 10 13 10 8 11 15 18 29 22 19 18 22 36 47 73 88 92 100 102 103 106 101 99 88 80 69 57 52 53 44 38 31 28 23 18 13 12
16 13 12 6 6 10 15 14 15 18 16 23 27 27 24 28 26 22 53 60 75 86 89 101 95 98 98 95 85 74 71 71 62 44 47 42 32 29 24 18 16 15 12
18 16 13 11 4 10 15 16 18 19 22 30 33 35 32 31 28 44 65 75 82 76 67 77 83 78 85 80 76 73 70 66 64 57 44 43 33 26 25 22 21 18 12
20 17 14 10 9 9 14 16 22 24 30 31 29 29 33 34 32 61 70 81 69 55 56 59 61 67 64 65 63 64 60 55 52 49 40 40 36 28 24 25 20 14 10
25 23 16 11 10 10 14 16 22 29 29 27 28 25 34 36 42 63 70 66 56 61 54 47 52 60 61 54 56 58 53 54 52 44 37 19 30 24 23 25 21 16 15
20 19 20 15 11 14 16 20 25 29 33 32 29 25 35 42 44 54 63 68 58 53 57 56 55 54 57 59 48 38 40 44 47 39 33 23 28 26 26 29 26 23 21
Wind_Direction_500mb
242 245 245 239 244 254 260 257 274 280 276 268 262 251 257 251 253 253 252 239 225 222 225 233 249 258 253 224 211 206 206 199 196 199 204 201 203 196 192 187 182 183 178
241 250 244 245 243 256 261 266 256 251 255 258 260 259 250 249 250 245 257 235 221 226 230 232 250 258 248 222 208 205 205 204 201 199 203 202 202 195 192 185 182 179 178
237 251 240 240 251 256 259 261 252 257 263 265 251 247 245 251 251 246 236 238 234 218 232 247 249 250 234 220 209 206 205 203 203 202 205 201 196 195 189 182 182 172 172
245 257 255 248 250 263 269 266 270 259 255 256 253 240 247 239 259 247 231 238 231 220 225 230 246 223 218 219 208 207 205 202 199 201 201 197 195 193 185 183 179 168 171
253 263 269 261 268 269 270 273 278 261 254 252 250 237 238 241 248 239 232 223 225 221 231 230 244 218 210 215 211 207 207 202 196 201 201 196 192 195 186 180 175 175 173
252 261 277 273 272 279 273 276 275 258 254 252 244 234 234 241 239 234 231 227 224 230 235 224 232 222 215 209 208 207 208 203 195 198 201 198 193 191 186 190 175 178 174
248 260 261 270 278 278 282 278 266 256 251 248 236 228 242 254 246 238 224 213 214 204 228 231 223 232 217 211 206 206 207 201 192 195 199 199 192 192 189 171 172 172 169
244 249 263 268 270 282 283 281 270 259 257 238 234 227 249 253 249 235 221 211 214 214 219 221 230 223 214 218 206 203 207 200 192 195 194 194 191 184 180 171 171 169 161
239 256 261 278 284 284 288 274 262 258 257 238 234 232 209 240 267 230 217 211 206 215 227 225 223 220 221 214 207 204 206 199 191 195 193 190 188 182 176 171 169 163 152
246 261 263 282 289 283 287 278 258 251 247 236 236 236 234 247 223 230 216 215 212 219 228 228 222 216 224 214 204 205 203 197 191 195 194 189 183 181 173 167 162 159 162
252 259 274 287 290 291 293 287 270 260 250 249 243 236 239 227 236 265 209 208 215 210 213 223 228 222 224 212 210 205 205 200 188 202 195 178 180 173 164 159 158 158 174
269 265 263 244 281 299 284 280 270 252 246 246 243 234 233 222 227 239 217 205 210 201 218 225 228 215 216 217 211 203 196 190 175 188 196 176 172 167 164 158 159 169 136
278 249 207 230 275 287 286 339 303 280 205 243 241 246 228 216 221 221 200 189 198 200 201 210 206 204 210 214 199 192 181 179 183 185 178 181 175 170 163 165 167 138 166
277 188 197 234 256 261 245 248 275 325 354 274 245 235 228 228 214 225 205 198 174 172 172 183 196 194 199 199 181 180 180 189 180 187 195 198 171 164 167 159 155 155 179
168 181 172 187 216 265 279 275 255 203 205 257 237 214 193 196 214 221 212 200 188 163 165 177 153 183 184 188 177 184 177 180 173 179 177 166 161 160 162 148 152 174 171
152 79 111 100 268 291 272 251 237 139 152 162 160 152 175 182 202 215 205 207 207 205 165 179 168 170 172 179 179 170 174 174 170 163 152 151 156 152 143 157 165 169 171
155 134 97 49 14 338 266 198 183 180 195 253 214 168 162 167 188 177 187 227 198 200 180 159 167 165 166 167 165 166 168 161 154 151 151 151 147 152 152 168 172 192 195
159 140 81 5 320 329 293 216 222 222 228 250 151 160 148 165 123 90 180 183 197 179 163 150 155 153 169 168 145 146 153 146 147 151 153 151 155 165 154 184 172 160 170
143 154 213 304 327 321 43 43 254 260 214 228 150 157 162 156 127 131 146 161 155 151 152 147 149 154 149 149 144 139 140 142 141 142 149 148 145 151 155 149 156 161 172
165 164 190 326 16 27 87 85 58 328 82 135 143 150 151 158 152 149 154 154 157 151 145 142 137 133 138 143 142 142 139 137 141 145 147 144 151 154 155 162 171 176 190
172 165 171 98 48 42 74 71 68 81 114 116 112 143 140 140 155 167 169 152 144 130 127 133 134 138 142 143 142 147 145 147 145 150 149 153 159 162 169 174 179 181 177
168 158 155 178 59 73 83 81 75 103 104 103 118 128 120 118 129 128 160 150 144 134 135 132 134 133 140 148 149 151 148 148 145 158 158 159 172 176 178 171 175 178 192
162 177 193 180 147 99 93 87 93 103 109 122 118 122 119 117 127 136 150 151 151 141 139 137 143 150 152 155 156 158 157 158 152 159 171 162 169 185 178 181 186 194 209
176 195 189 172 175 117 113 97 114 122 114 117 118 123 123 128 139 150 150 153 149 147 148 152 147 150 154 161 164 162 152 154 155 158 176 163 168 181 186 189 195 215 228
192 196 208 189 179 157 131 124 126 139 127 125 127 136 135 133 142 155 155 152 150 156 148 148 143 148 148 154 152 152 159 160 157 161 177 197 175 187 196 198 210 227 236
202 195 187 195 189 173 161 140 139 149 143 139 126 133 143 145 148 158 161 160 157 157 146 148 145 149 149 149 152 158 160 167 160 164 183 188 194 192 198 210 217 230 235
Wind_Speed_850mb
47 35 34 29 29 31 27 20 22 31 34 32 27 32 34 36 30 27 36 34 35 40 40 35 31 32 29 36 42 39 40 41 38 47 45 40 38 39 37 39 38 34 36
39 36 32 28 33 38 39 35 31 32 36 39 42 34 32 39 39 40 31 30 35 42 37 34 32 30 30 37 44 41 41 41 38 42 44 41 40 39 41 38 35 35 37
37 35 37 42 42 39 39 39 45 48 47 36 36 29 25 25 29 35 35 37 32 35 35 35 34 34 33 39 45 43 44 44 41 41 45 43 44 41 40 38 38 42 37
38 37 38 42 41 42 43 39 38 47 48 38 32 35 32 26 31 35 39 39 36 25 21 22 24 31 32 37 44 44 44 44 46 41 46 47 44 43 40 41 44 37 28
38 37 34 35 32 39 43 45 44 41 40 38 34 35 29 33 32 35 41 39 39 31 23 20 19 23 34 36 41 46 43 45 48 44 47 52 47 42 43 48 42 34 29
33 35 30 27 33 44 44 43 44 38 35 35 33 32 32 30 30 33 36 37 41 49 41 28 24 21 32 36 40 43 44 45 49 49 51 52 49 47 49 50 45 32 31
32 26 26 34 47 50 50 42 38 37 37 34 33 31 33 35 32 34 38 36 37 40 35 40 33 28 22 34 40 44 45 46 51 50 56 54 53 47 46 47 39 40 37
34 34 30 40 48 48 42 36 33 35 34 31 34 24 22 33 35 37 42 38 35 34 30 37 40 28 26 35 45 45 42 46 53 49 59 54 52 51 50 41 42 43 38
37 34 34 37 39 39 34 26 30 30 30 27 30 26 11 18 14 34 47 41 43 37 38 39 38 38 33 28 40 44 42 48 56 54 56 63 55 55 51 47 48 43 37
34 36 37 34 32 23 20 16 18 22 23 25 28 34 39 13 8 7 41 44 40 41 39 39 44 36 39 28 41 44 45 47 60 56 66 63 62 56 52 54 49 44 41
32 33 35 28 16 15 13 12 14 18 22 25 28 28 29 37 24 15 19 45 43 33 38 35 38 40 46 37 38 46 45 49 66 57 69 70 63 62 64 58 50 47 33
28 27 24 14 8 10 9 8 8 10 13 15 17 20 24 24 33 32 25 39 47 32 30 33 37 37 40 45 38 42 47 59 78 52 49 76 72 70 62 57 47 28 26
15 12 14 11 9 9 5 2 1 0 3 4 7 13 18 23 23 25 18 31 43 33 25 28 26 30 38 42 40 43 55 74 55 64 67 70 70 70 62 49 43 33 20
7 13 11 7 7 7 8 6 4 2 3 3 6 11 15 17 23 22 29 42 34 29 26 21 25 26 37 42 42 59 67 62 80 57 69 66 70 72 63 53 49 29 22
11 9 6 5 3 3 6 9 7 4 5 8 4 11 15 22 21 23 27 39 41 33 30 29 23 21 38 46 52 53 55 59 58 73 81 73 74 64 51 48 39 31 27
9 4 6 4 1 4 7 9 8 4 6 6 7 10 12 16 21 23 28 37 42 41 33 39 36 36 36 63 58 59 71 74 85 80 76 69 62 55 48 39 35 31 21
10 10 9 7 5 6 5 6 8 13 6 7 6 4 9 10 14 16 19 25 42 36 39 44 38 36 57 81 82 75 83 86 85 81 72 64 62 55 48 41 34 26 26
17 10 4 7 8 15 10 5 11 14 15 4 7 8 12 14 11 12 22 37 32 40 44 54 48 45 46 63 87 98 92 92 83 70 61 55 49 42 36 27 27 31 23
16 11 3 7 11 13 5 3 2 3 6 10 7 11 15 19 19 21 25 30 35 39 31 54 66 65 80 93 95 93 92 81 73 68 57 47 40 35 35 31 25 19 15
13 10 5 3 8 8 11 14 8 3 1 9 11 17 23 21 18 23 35 41 36 46 67 84 96 97 104 106 103 94 79 77 69 58 48 47 44 35 28 23 20 15 11
16 9 5 5 7 12 10 13 10 8 11 15 18 29 22 19 18 22 36 47 73 88 92 100 102 103 106 101 99 88 80 69 57 52 53 44 38 31 28 23 18 13 12
16 13 12 6 6 10 15 14 15 18 16 23 27 27 24 28 26 22 53 60 75 86 89 101 95 98 98 95 85 74 71 71 62 44 47 42 32 29 24 18 16 15 12
18 16 13 11 4 10 15 16 18 19 22 30 33 35 32 31 28 44 65 75 82 76 67 77 83 78 85 80 76 73 70 66 64 57 44 43 33 26 25 22 21 18 12
20 17 14 10 9 9 14 16 22 24 30 31 29 29 33 34 32 61 70 81 69 55 56 59 61 67 64 65 63 64 60 55 52 49 40 40 36 28 24 25 20 14 10
25 23 16 11 10 10 14 16 22 29 29 27 28 25 34 36 42 63 70 66 56 61 54 47 52 60 61 54 56 58 53 54 52 44 37 19 30 24 23 25 21 16 15
20 19 20 15 11 14 16 20 25 29 33 32 29 25 35 42 44 54 63 68 58 53 57 56 55 54 57 59 48 38 40 44 47 39 33 23 28 26 26 29 26 23 21
Wind_Direction_850mb
242 245 245 239 244 254 260 257 274 280 276 268 262 251 257 251 253 253 252 239 225 222 225 233 249 258 253 224 211 206 206 199 196 199 204 201 203 196 192 187 182 183 178
241 250 244 245 243 256 261 266 256 251 255 258 260 259 250 249 250 245 257 235 221 226 230 232 250 258 248 222 208 205 205 204 201 199 203 202 202 195 192 185 182 179 178
237 251 240 240 251 256 259 261 252 257 263 265 251 247 245 251 251 246 236 238 234 218 232 247 249 250 234 220 209 206 205 203 203 202 205 201 196 195 189 182 182 172 172
245 257 255 248 250 263 269 266 270 259 255 256 253 240 247 239 259 247 231 238 231 220 225 230 246 223 218 219 208 207 205 202 199 201 201 197 195 193 185 183 179 168 171
253 263 269 261 268 269 270 273 278 261 254 252 250 237 238 241 248 239 232 223 225 221 231 230 244 218 210 215 211 207 207 202 196 201 201 196 192 195 186 180 175 175 173
252 261 277 273 272 279 273 276 275 258 254 252 244 234 234 241 239 234 231 227 224 230 235 224 232 222 215 209 208 207 208 203 195 198 201 198 193 191 186 190 175 178 174
248 260 261 270 278 278 282 278 266 256 251 248 236 228 242 254 246 238 224 213 214 204 228 231 223 232 217 211 206 206 207 201 192 195 199 199 192 192 189 171 172 172 169
244 249 263 268 270 282 283 281 270 259 257 238 234 227 249 253 249 235 221 211 214 214 219 221 230 223 214 218 206 203 207 200 192 195 194 194 191 184 180 171 171 169 161
239 256 261 278 284 284 288 274 262 258 257 238 234 232 209 240 267 230 217 211 206 215 227 225 223 220 221 214 207 204 206 199 191 195 193 190 188 182 176 171 169 163 152
246 261 263 282 289 283 287 278 258 251 247 236 236 236 234 247 223 230 216 215 212 219 228 228 222 216 224 214 204 205 203 197 191 195 194 189 183 181 173 167 162 159 162
252 259 274 287 290 291 293 287 270 260 250 249 243 236 239 227 236 265 209 208 215 210 213 223 228 222 224 212 210 205 205 200 188 202 195 178 180 173 164 159 158 158 174
269 265 263 244 281 299 284 280 270 252 246 246 243 234 233 222 227 239 217 205 210 201 218 225 228 215 216 217 211 203 196 190 175 188 196 176 172 167 164 158 159 169 136
278 249 207 230 275 287 286 339 303 280 205 243 241 246 228 216 221 221 200 189 198 200 201 210 206 204 210 214 199 192 181 179 183 185 178 181 175 170 163 165 167 138 166
277 188 197 234 256 261 245 248 275 325 354 274 245 235 228 228 214 225 205 198 174 172 172 183 196 194 199 199 181 180 180 189 180 187 195 198 171 164 167 159 155 155 179
168 181 172 187 216 265 279 275 255 203 205 257 237 214 193 196 214 221 212 200 188 163 165 177 153 183 184 188 177 184 177 180 173 179 177 166 161 160 162 148 152 174 171
152 79 111 100 268 291 272 251 237 139 152 162 160 152 175 182 202 215 205 207 207 205 165 179 168 170 172 179 179 170 174 174 170 163 152 151 156 152 143 157 165 169 171
155 134 97 49 14 338 266 198 183 180 195 253 214 168 162 167 188 177 187 227 198 200 180 159 167 165 166 167 165 166 168 161 154 151 151 151 147 152 152 168 172 192 195
159 140 81 5 320 329 293 216 222 222 228 250 151 160 148 165 123 90 180 183 197 179 163 150 155 153 169 168 145 146 153 146 147 151 153 151 155 165 154 184 172 160 170
143 154 213 304 327 321 43 43 254 260 214 228 150 157 162 156 127 131 146 161 155 151 152 147 149 154 149 149 144 139 140 142 141 142 149 148 145 151 155 149 156 161 172
165 164 190 326 16 27 87 85 58 328 82 135 143 150 151 158 152 149 154 154 157 151 145 142 137 133 138 143 142 142 139 137 141 145 147 144 151 154 155 162 171 176 190
172 165 171 98 48 42 74 71 68 81 114 116 112 143 140 140 155 167 169 152 144 130 127 133 134 138 142 143 142 147 145 147 145 150 149 153 159 162 169 174 179 181 177
168 158 155 178 59 73 83 81 75 103 104 103 118 128 120 118 129 128 160 150 144 134 135 132 134 133 140 148 149 151 148 148 145 158 158 159 172 176 178 171 175 178 192
162 177 193 180 147 99 93 87 93 103 109 122 118 122 119 117 127 136 150 151 151 141 139 137 143 150 152 155 156 158 157 158 152 159 171 162 169 185 178 181 186 194 209
176 195 189 172 175 117 113 97 114 122 114 117 118 123 123 128 139 150 150 153 149 147 148 152 147 150 154 161 164 162 152 154 155 158 176 163 168 181 186 189 195 215 228
192 196 208 189 179 157 131 124 126 139 127 125 127 136 135 133 142 155 155 152 150 156 148 148 143 148 148 154 152 152 159 160 157 161 177 197 175 187 196 198 210 227 236
202 195 187 195 189 173 161 140 139 149 143 139 126 133 143 145 148 158 161 160 157 157 146 148 145 149 149 149 152 158 160 167 160 164 183 188 194 192 198 210 217 230 235